Regional Weather Roundup
Issued by NWS

Home | Current Version | Previous Version | Text Only | Print | Product List | Glossary On
Versions: 1 2 3 4 5 6 7 8 9 10 11 12 13 14 15 16 17 18 19 20 21 22 23 24 25 26 27 28 29 30 31 32 33 34 35 36 37 38 39 40 41 42 43 44 45 46 47 48 49 50
000
ASUS43 KDMX 280507
RWRIA

WEATHER ROUNDUP FOR IOWA
NATIONAL WEATHER SERVICE DES MOINES IA
1200 AM CDT FRI AUG 28 2015

NOTE: "FAIR" INDICATES FEW OR NO CLOUDS BELOW 12,000 FEET WITH NO
SIGNIFICANT WEATHER AND/OR OBSTRUCTIONS TO VISIBILITY.

* - THESE STATIONS ARE NOT NWS STATIONS...THUS NOT UNDER NWS
QUALITY CONTROL.  THEY ALSO DO NOT REPORT WEATHER SUCH
AS PRECIPITATION OR FOG.

IAZ001>003-012>014-020>022-031>034-043>046-280600-
   NORTHWEST IOWA

CITY           SKY/WX    TMP DP  RH WIND       PRES   REMARKS
CARROLL *      CLOUDY    64  63  94 SE12      29.98F
CHEROKEE *     CLOUDY    64  64 100 SE6       30.00S
DENISON *      CLEAR     66  63  88 E5        29.97R
LE MARS *      CLOUDY    66  64  94 E9        29.99R
ORANGE CITY *  LGT RAIN  64  64 100 E10G20    30.00S
SIOUX CITY     RAIN      67  63  87 E17       29.94R
SPENCER        LGT RAIN  65  61  87 SE14      30.02R
STORM LAKE *   CLOUDY    63  63 100 SE9G20    30.01S
$$

IAZ055>058-069>071-079>083-090>094-280600-
   SOUTHWEST IOWA

CITY           SKY/WX    TMP DP  RH WIND       PRES   REMARKS
ATLANTIC *     CLEAR     68  63  83 SE7       29.97F
AUDUBON *      CLEAR     64  61  88 E3        30.00F
CLARINDA *     CLEAR     68  64  88 SE12      29.97F
COUNCIL BLFS * CLEAR     68  64  88 SE12      29.95R
CRESTON *      CLEAR     64  61  88 SE16      30.00F
HARLAN  *      CLEAR     66  66 100 E5        30.00S
LAMONI         PTCLDY    66  60  81 SE8       30.02F
RED OAK *      CLOUDY    68  64  88 SE10G17   29.94F
SHENANDOAH *   CLEAR     70  66  88 SE13G20   29.93F
$$

IAZ047>049-059>061-072>074-084-280600-
   CENTRAL IOWA

CITY           SKY/WX    TMP DP  RH WIND       PRES   REMARKS
AMES           CLOUDY    64  61  90 SE7       30.02S
ANKENY *       MOCLDY    66  63  88 SE6       30.03S
CHARITON *     CLOUDY    64  61  88 SE9       30.05S
DES MOINES     MOCLDY    67  60  78 SE13      30.02F
GRINNELL*      PTCLDY    63  59  88 SE8       30.06S
KNOXVILLE *    PTCLDY    64  59  82 SE13      30.03F
MARSHALLTOWN   CLOUDY    64  59  83 SE13      30.04F
PELLA *        MOCLDY    63  62  96 SE8       30.06S
PERRY *          N/A     66  63  88 SE9       30.01F
$$

IAZ004>006-015-016-023>025-035-036-280600-
   NORTH CENTRAL IOWA

CITY           SKY/WX    TMP DP  RH WIND       PRES   REMARKS
ALGONA *       LGT RAIN  64  63  94 SW8       30.08R
CLARION *      CLOUDY    64  61  88 SE9       30.04R
ESTHERVILLE    HVY RAIN  63  62  97 S14       30.04S FOG
FORT DODGE *   CLOUDY    63  61  94 E6        30.07R THUNDER
MASON CITY     CLOUDY    64  60  87 SE12      30.04F
FOREST CITY *  DRIZZLE   63  61  94 SE6       30.04S
IOWA FALLS *     N/A     64  61  88 SE7       30.06R
$$

IAZ007>011-017>019-026>030-037>042-050>054-066-280600-
   NORTHEAST IOWA

CITY           SKY/WX    TMP DP  RH WIND       PRES   REMARKS
CEDAR RAPIDS   PTCLDY    59  59 100 E7        30.07F
CHARLES CITY * CLOUDY    64  61  88 SE8       30.06F
CLINTON *      MOCLDY    63  59  88 SE6       30.14R
DECORAH *      CLEAR     63  61  94 S6        30.08R
DUBUQUE        CLOUDY    63  59  87 S8        30.11S
MONTICELLO *   CLEAR     63  59  88 SE5       30.09F
OELWEIN *      CLOUDY    63  59  88 SE9       30.07F
WATERLOO       MOCLDY    65  59  81 SE10      30.04F
$$

IAZ064-065-067-068-078-280600-
   EAST CENTRAL IOWA

CITY           SKY/WX    TMP DP  RH WIND       PRES   REMARKS
DAVENPORT      MOCLDY    63  59  87 SE5       30.11R
IOWA CITY      PTCLDY    61  58  90 SE5       30.09S
MT. PLEASANT * PTCLDY    63  59  88 SE5       30.09S
MUSCATINE *    CLEAR     61  57  88 CALM      30.10R
QUAD CITIES    PTCLDY    63  58  83 E5        30.10S
$$

IAZ062-063-075>077-085>089-095>099-280600-
   SOUTHEAST IOWA

CITY           SKY/WX    TMP DP  RH WIND       PRES   REMARKS
BURLINGTON     PTCLDY    63  59  87 SE5       30.09R
FAIRFIELD *    MOCLDY    61  57  88 SE6       30.08S
FORT MADISON * CLEAR     63  59  88 SE6       30.09S
KEOKUK *       CLEAR     63  59  88 SE5       30.07F
OSKALOOSA *      N/A     61  59  94 SE5       30.07S
CENTERVILLE *  CLEAR     61  59  94 E7        30.08S
OTTUMWA        PTCLDY    63  60  90 SE9       30.06R
WASHINGTON *     N/A    N/A N/A N/A MISG        N/A
$$

ABBREVIATIONS USED IN REMARKS
   TC - TEMPERATURES IN CELSIUS
  WCI - WIND CHILL INDEX
   HX - HEAT INDEX
  VSB - VISIBILITY
$$



USA.gov is the U.S. government's official web portal to all federal, state and local government web resources and services.